TimeCDT,TemperatureF,Dew PointF,Humidity,Sea Level PressureIn,VisibilityMPH,Wind Direction,Wind SpeedMPH,Gust SpeedMPH,PrecipitationIn,Events,Conditions,WindDirDegrees,DateUTC
12:53 AM,-9999,-9999,N/A,29.98,-9999.0,North,-9999.0,-,N/A,,Unknown,0,2013-06-17 05:53:00
1:53 AM,-9999,-9999,N/A,29.99,-9999.0,North,-9999.0,-,N/A,,Unknown,0,2013-06-17 06:53:00
2:53 AM,-9999,-9999,N/A,29.98,-9999.0,North,-9999.0,-,N/A,,Unknown,0,2013-06-17 07:53:00
3:53 AM,-9999,-9999,N/A,29.96,-9999.0,North,-9999.0,-,N/A,,Unknown,0,2013-06-17 08:53:00
4:53 AM,-9999,-9999,N/A,29.96,-9999.0,North,-9999.0,-,N/A,,Unknown,0,2013-06-17 09:53:00
5:53 AM,-9999,-9999,N/A,29.96,-9999.0,North,-9999.0,-,N/A,,Unknown,0,2013-06-17 10:53:00
6:53 AM,-9999,-9999,N/A,29.98,-9999.0,North,-9999.0,-,N/A,,Unknown,0,2013-06-17 11:53:00
7:53 AM,-9999,-9999,N/A,29.99,-9999.0,North,-9999.0,-,N/A,,Unknown,0,2013-06-17 12:53:00
8:53 AM,-9999,-9999,N/A,29.98,-9999.0,North,-9999.0,-,N/A,,Unknown,0,2013-06-17 13:53:00
9:53 AM,86.0,73.0,65,29.99,10.0,WSW,11.5,-,N/A,,Unknown,250,2013-06-17 14:53:00
10:53 AM,88.0,72.0,59,30.01,10.0,WSW,11.5,16.1,N/A,,Clear,250,2013-06-17 15:53:00
11:53 AM,90.0,72.0,55,30.01,10.0,WSW,10.4,-,N/A,,Partly Cloudy,250,2013-06-17 16:53:00
12:53 PM,91.9,71.1,50,29.98,10.0,WSW,6.9,19.6,N/A,,Partly Cloudy,240,2013-06-17 17:53:00
1:53 PM,93.0,68.0,44,29.95,10.0,West,11.5,-,N/A,,Clear,270,2013-06-17 18:53:00
2:53 PM,91.9,70.0,48,29.92,10.0,SSW,8.1,-,N/A,,Scattered Clouds,200,2013-06-17 19:53:00
3:53 PM,89.1,73.9,61,29.91,10.0,SSE,4.6,-,N/A,,Mostly Cloudy,160,2013-06-17 20:53:00
4:53 PM,89.1,73.9,61,29.91,10.0,South,4.6,-,N/A,,Mostly Cloudy,170,2013-06-17 21:53:00
5:53 PM,89.1,75.0,63,29.90,10.0,South,3.5,-,N/A,,Mostly Cloudy,190,2013-06-17 22:53:00
6:53 PM,89.1,75.0,63,29.90,10.0,SSW,4.6,-,N/A,,Mostly Cloudy,200,2013-06-17 23:53:00
7:53 PM,84.9,77.0,77,29.90,10.0,SSE,4.6,-,N/A,,Mostly Cloudy,160,2013-06-18 00:53:00
8:53 PM,84.0,75.9,76,29.90,10.0,South,3.5,-,N/A,,Mostly Cloudy,170,2013-06-18 01:53:00
9:53 PM,82.0,75.0,79,29.91,10.0,SSW,4.6,-,N/A,,Partly Cloudy,210,2013-06-18 02:53:00
10:53 PM,80.1,73.9,81,29.91,10.0,Calm,Calm,-,N/A,,Clear,0,2013-06-18 03:53:00
11:53 PM,78.1,73.9,87,29.92,10.0,Calm,Calm,-,N/A,,Clear,0,2013-06-18 04:53:00